Date String (YYYY-MM-DD hh:mm:ss) UTC,Instrument flags,absolute air pressure of the measurement (hPa),sample flow rate (lpm),inlet stack bypass flow (lpm),air temperature of the measurement (°C),ambient temperature measured by the external sensor (°C),aerosol sample conditioner tube jacket temperature (°C),OPC LED temperature (°C),internal box temperature (°C),relative humidity of the measurement (%),span deviation,mass concentration of particles derived from Lorenz-Mie calculation of OPC scattering (μg/m³),mass concentration of particles derived from Lorenz-Mie calculation of OPC scattering (μg/m³),mass concentration of particles derived from Lorenz-Mie calculation of OPC scattering (μg/m³)
DateTimeUTC,F1_M11,P_M11,Q1_M11,Q2_M11,T1_M11,T2_M11,T3_M11,T4_M11,T5_M11,U1_M11,ZSPAN_M11,X0_M11,X2_M11,X1_M11
2023-07-09 07:00:00,SystemResetWarning,0834.4,4.99,000.00,030.1,028.8,000.0,038.6,031.6,33.9,-002.1,0019.54,0009.63,0008.04
2023-07-09 07:01:00,SystemResetWarning,0834.4,4.99,000.00,030.1,028.8,000.0,038.6,031.6,33.8,-002.3,0019.89,0009.76,0008.16
2023-07-09 07:02:00,SystemResetWarning,0834.4,4.99,000.00,030.1,028.8,000.0,038.6,031.6,33.8,-002.4,0020.31,0009.91,0008.27
2023-07-09 07:03:00,SystemResetWarning,0834.4,5.00,000.00,030.2,028.8,000.0,038.6,031.6,33.8,-002.5,0021.05,0010.10,0008.37
2023-07-09 07:04:00,SystemResetWarning,0834.4,5.00,000.00,030.2,028.9,000.0,038.6,031.7,33.9,-002.7,0022.91,0010.23,0008.45
2023-07-09 07:05:00,SystemResetWarning,0834.4,5.01,000.00,030.2,028.8,000.0,038.6,031.7,33.8,-002.8,0024.79,0010.27,0008.51
2023-07-09 07:06:00,SystemResetWarning,0834.3,4.99,000.00,030.2,027.4,000.0,038.5,031.5,33.8,-002.7,0025.37,0010.42,0008.57
2023-07-09 07:07:00,SystemResetWarning,0834.4,5.01,000.00,030.1,025.8,000.0,038.4,031.3,33.9,-002.8,0025.63,0010.53,0008.67
2023-07-09 07:08:00,SystemResetWarning,0834.2,5.00,000.00,030.0,025.4,000.0,038.3,031.1,34.1,-002.7,0026.93,0010.56,0008.67
2023-07-09 07:09:00,SystemResetWarning,0834.2,5.01,000.00,029.8,025.6,000.0,038.4,030.8,34.5,-002.6,0027.30,0010.52,0008.62
2023-07-09 07:10:00,SystemResetWarning,0834.1,4.99,000.00,029.8,026.0,000.0,038.4,030.9,34.6,-002.3,0026.85,0010.45,0008.55
2023-07-09 07:11:00,SystemResetWarning,0834.1,5.00,000.00,029.7,026.5,000.0,038.4,030.9,34.7,-002.2,0026.57,0010.41,0008.51
2023-07-09 07:12:00,SystemResetWarning,0834.1,5.00,000.00,029.7,026.8,000.0,038.4,031.0,34.8,-002.1,0026.15,0010.31,0008.48
2023-07-09 07:13:00,SystemResetWarning,0834.1,5.00,000.00,029.7,027.1,000.0,038.4,031.0,34.8,-002.2,0025.99,0010.27,0008.49
2023-07-09 07:14:00,SystemResetWarning,0834.1,4.99,000.00,029.7,027.4,000.0,038.3,031.1,34.8,-002.0,0026.07,0010.25,0008.48
2023-07-09 07:15:00,SystemResetWarning,0834.1,5.01,000.00,029.7,027.6,000.0,038.3,031.1,34.8,-001.8,0025.12,0010.17,0008.48
2023-07-09 07:16:00,SystemResetWarning,0834.0,5.00,000.00,029.7,027.8,000.0,038.3,031.1,34.8,-001.7,0024.23,0010.14,0008.49
2023-07-09 07:17:00,SystemResetWarning,0834.0,5.00,000.00,029.7,028.0,000.0,038.3,031.2,34.7,-001.7,0023.49,0010.07,0008.46
2023-07-09 07:18:00,SystemResetWarning,0834.0,5.02,000.00,029.7,028.1,000.0,038.3,031.2,34.6,-001.6,0022.76,0009.98,0008.41
2023-07-09 07:19:00,SystemResetWarning,0834.0,4.99,000.00,029.7,028.2,000.0,038.3,031.2,34.7,-001.3,0021.69,0009.90,0008.41
2023-07-09 07:20:00,SystemResetWarning,0834.0,5.00,000.00,029.8,028.3,000.0,038.3,031.3,34.8,-001.3,0020.73,0009.86,0008.43
2023-07-09 07:21:00,SystemResetWarning,0834.0,5.00,000.00,029.8,028.4,000.0,038.3,031.3,34.7,-001.7,0020.27,0009.83,0008.43
2023-07-09 07:22:00,SystemResetWarning,0834.0,5.00,000.00,029.8,028.4,000.0,038.3,031.3,34.7,-001.8,0019.75,0009.80,0008.44
2023-07-09 07:23:00,SystemResetWarning,0833.9,5.01,000.00,029.8,028.5,000.0,038.4,031.4,34.7,-001.5,0019.43,0009.89,0008.46
2023-07-09 07:24:00,SystemResetWarning,0834.0,5.01,000.00,029.8,028.5,000.0,038.4,031.4,34.8,-001.3,0019.62,0009.90,0008.45
2023-07-09 07:25:00,SystemResetWarning,0834.0,4.99,000.00,029.9,028.6,000.0,038.4,031.4,34.6,-001.3,0019.81,0009.88,0008.42
2023-07-09 07:26:00,SystemResetWarning,0834.0,4.99,000.00,029.9,028.6,000.0,038.4,031.4,34.6,-001.3,0019.99,0009.87,0008.40
2023-07-09 07:27:00,SystemResetWarning,0834.0,4.99,000.00,029.9,028.7,000.0,038.4,031.4,34.6,-001.5,0018.84,0009.81,0008.38
2023-07-09 07:28:00,SystemResetWarning,0834.0,5.00,000.00,029.9,028.7,000.0,038.4,031.5,34.5,-001.3,0018.77,0009.75,0008.37
2023-07-09 07:29:00,SystemResetWarning,0834.0,5.01,000.00,030.0,028.7,000.0,038.4,031.5,34.5,-001.4,0018.81,0009.78,0008.37
2023-07-09 07:30:00,SystemResetWarning,0834.0,5.01,000.00,030.0,028.7,000.0,038.5,031.5,34.4,-001.6,0018.57,0009.75,0008.34
2023-07-09 07:31:00,SystemResetWarning,0834.0,4.99,000.00,030.0,028.8,000.0,038.5,031.5,34.4,-002.1,0019.10,0009.76,0008.30
2023-07-09 07:32:00,SystemResetWarning,0834.0,5.00,000.00,030.0,028.8,000.0,038.5,031.5,34.3,-002.2,0019.12,0009.71,0008.27
2023-07-09 07:33:00,SystemResetWarning,0834.0,5.00,000.00,030.0,028.8,000.0,038.5,031.6,34.2,-002.4,0019.50,0009.65,0008.24
2023-07-09 07:34:00,SystemResetWarning,0834.0,5.00,000.00,030.1,028.8,000.0,038.5,031.6,34.1,-002.6,0020.03,0009.59,0008.20
2023-07-09 07:35:00,SystemResetWarning,0834.1,5.00,000.00,030.1,028.7,000.0,038.5,031.6,34.1,-002.6,0020.45,0009.54,0008.16
2023-07-09 07:36:00,SystemResetWarning,0834.0,4.98,000.00,030.1,027.1,000.0,038.4,031.5,34.0,-002.6,0019.92,0009.51,0008.14
2023-07-09 07:37:00,SystemResetWarning,0834.0,5.01,000.00,030.0,025.6,000.0,038.3,031.3,34.2,-002.7,0019.34,0009.45,0008.12
2023-07-09 07:38:00,SystemResetWarning,0833.9,5.01,000.00,029.9,025.4,000.0,038.3,030.9,34.5,-002.6,0019.74,0009.46,0008.11
2023-07-09 07:39:00,SystemResetWarning,0834.0,5.00,000.00,029.7,025.6,000.0,038.3,030.8,34.8,-002.6,0020.55,0009.48,0008.10
2023-07-09 07:40:00,SystemResetWarning,0834.0,5.00,000.00,029.7,026.1,000.0,038.3,030.9,34.9,-002.6,0020.61,0009.47,0008.09
2023-07-09 07:41:00,SystemResetWarning,0834.0,5.00,000.00,029.6,026.5,000.0,038.3,030.9,34.9,-002.7,0021.58,0009.50,0008.09
2023-07-09 07:42:00,SystemResetWarning,0834.0,5.00,000.00,029.6,026.8,000.0,038.3,031.0,35.0,-002.4,0022.02,0009.52,0008.08
2023-07-09 07:43:00,SystemResetWarning,0834.0,4.99,000.00,029.6,027.1,000.0,038.3,031.0,34.9,-002.5,0022.25,0009.49,0008.07
2023-07-09 07:44:00,SystemResetWarning,0834.0,5.01,000.00,029.6,027.4,000.0,038.3,031.1,34.9,-002.4,0021.63,0009.49,0008.07
2023-07-09 07:45:00,SystemResetWarning,0834.1,5.00,000.00,029.6,027.6,000.0,038.3,031.1,34.9,-002.4,0021.08,0009.48,0008.06
2023-07-09 07:46:00,SystemResetWarning,0834.1,4.99,000.00,029.6,027.8,000.0,038.3,031.1,34.9,-002.5,0020.34,0009.44,0008.07
2023-07-09 07:47:00,SystemResetWarning,0834.1,4.99,000.00,029.7,028.0,000.0,038.3,031.2,35.0,-002.9,0020.33,0009.40,0008.06
2023-07-09 07:48:00,SystemResetWarning,0834.1,5.01,000.00,029.8,028.1,000.0,038.3,031.3,34.7,-002.9,0020.30,0009.39,0008.06
2023-07-09 07:49:00,SystemResetWarning,0834.1,4.99,000.00,029.9,028.2,000.0,038.3,031.3,34.4,-003.1,0020.43,0009.40,0008.05
2023-07-09 07:50:00,SystemResetWarning,0834.1,5.02,000.00,030.0,028.3,000.0,038.3,031.3,34.2,-003.2,0019.64,0009.39,0008.05
2023-07-09 07:51:00,SystemResetWarning,0834.1,4.99,000.00,030.1,028.4,000.0,038.3,031.4,34.1,-003.5,0019.63,0009.36,0008.03
2023-07-09 07:52:00,SystemResetWarning,0834.1,4.99,000.00,030.1,028.4,000.0,038.4,031.4,34.0,-003.7,0019.39,0009.31,0007.99
2023-07-09 07:53:00,SystemResetWarning,0834.0,5.00,000.00,030.2,028.5,000.0,038.4,031.4,33.9,-003.6,0018.68,0009.27,0007.97
2023-07-09 07:54:00,SystemResetWarning,0834.0,5.01,000.00,030.2,028.6,000.0,038.4,031.4,33.8,-003.1,0017.93,0009.20,0007.94
2023-07-09 07:55:00,SystemResetWarning,0833.9,5.00,000.00,030.2,028.6,000.0,038.5,031.5,33.8,-003.2,0017.80,0009.15,0007.91
2023-07-09 07:56:00,SystemResetWarning,0834.0,4.99,000.00,030.2,028.6,000.0,038.5,031.5,33.8,-003.1,0017.53,0009.08,0007.87
2023-07-09 07:57:00,SystemResetWarning,0833.9,4.99,000.00,030.2,028.7,000.0,038.6,031.5,33.8,-003.3,0017.90,0009.05,0007.84
2023-07-09 07:58:00,SystemResetWarning,0833.9,5.01,000.00,030.3,028.7,000.0,038.6,031.5,33.7,-003.0,0018.71,0009.05,0007.81
2023-07-09 07:59:00,SystemResetWarning,0833.9,5.00,000.00,030.3,028.7,000.0,038.6,031.5,33.7,-003.1,0018.31,0008.99,0007.76
